Regional Weather Roundup
Issued by NWS

Home | Current Version | Previous Version | Graphics & Text | Print | Product List | Glossary On
Versions: 1 2 3 4 5 6 7 8 9 10 11 12 13 14 15 16 17 18 19 20 21 22 23 24 25 26 27 28 29 30 31 32 33 34 35 36 37 38 39 40 41 42 43 44 45 46 47 48 49 50
000
ASUS43 KBIS 240902
RWRND

NORTH DAKOTA REGIONAL WEATHER ROUNDUP
NATIONAL WEATHER SERVICE BISMARCK ND
400 AM CDT TUE MAY 24 2016

NOTE: "FAIR" INDICATES FEW OR NO CLOUDS BELOW 12,000 FEET WITH NO
SIGNIFICANT WEATHER AND/OR OBSTRUCTIONS TO VISIBILITY.


NDZ001>003-009>011-017-241000-
NORTHWEST NORTH DAKOTA

CITY           SKY/WX    TMP DP  RH WIND       PRES   REMARKS
WILLISTON      CLEAR     45  39  79 SW3       29.80R
MINOT          PTCLDY    51  41  68 SW5       29.78R
$$

NDZ018>021-031>035-040>046-241000-
SOUTHWEST NORTH DAKOTA

CITY           SKY/WX    TMP DP  RH WIND       PRES   REMARKS
BISMARCK       PTCLDY    51  47  86 SW3       29.79R
DICKINSON      PTCLDY    38  33  82 S6        29.81R
GARRISON         N/A     48  40  73 CALM      29.80R
HETTINGER ARPT CLEAR     37  33  85 NW6       29.84R
$$

NDZ004>008-012>016-024-026-027-054-241000-
NORTHEAST NORTH DAKOTA

CITY           SKY/WX    TMP DP  RH WIND       PRES   REMARKS
GRAND FORKS    LGT RAIN  58  51  78 W22       29.76S
DEVILS LAKE    CLOUDY    67  39  35 E14G21    29.76F
$$

NDZ022-023-025-028>030-036>039-047>053-241000-
SOUTHEAST NORTH DAKOTA

CITY           SKY/WX    TMP DP  RH WIND       PRES   REMARKS
FARGO          MOCLDY    63  47  55 N15       29.78R
JAMESTOWN      CLOUDY    59  47  64 N6        29.79R
$$




USA.gov is the U.S. government's official web portal to all federal, state and local government web resources and services.